Aeroporto :
LOGIN :

Iscrizione | Disclaimer

   EN    FR    IT 

 










Sommario :    VFR   VFR Marginale   IFR   IFR Intensivo   IFR Molto Intensivo
Visibilità : 
Base nubi : 
>= 8 km
>= 3000ft
5 / 8 km
1000 / 3000 ft
1500m / 5 km
500 / 1000 ft
800 / 1500m
200 / 500 ft
< 800m
< 200 ft
Simboli :   Temporali  Nebbia  Neve Forte  Precipitazioni Forti  Vento > 20 kt
SIGMETs :   Varie  Temporali  Ghiacco  Turbolenza  Onda orograficha  Ceneri Vulcaniche






- Altitudine del aeroporto : 138 ft
- Codice IATA : RLG


ETNL - Rostock Laage

ULTIMO METAR :
  • 070320Z 13002KT 9999 FEW055 BKN100 09/07 Q1003 BLU

METARs OBSOLETI :
  • 070220Z VRB02KT 9999 FEW075 BKN100 10/08 Q1003 BLU
  • 070120Z VRB03KT 9999 SCT100 09/07 Q1003 BLU+

TAF TAF ETNL
Valido dal 06 a 23 ore il 07 a 11 ore UTC


062200Z 0623/0711 15005KT 9999 NSW SCT040
PROB30 0702/0706 VRB03KT 3000 MIFG FEW040 BY ETGL



MetMap, La meteo Aeronautica in un colpo d'occhio ! - Copyright ORBIFLY Dicembre 2007 - Disclaimer

ORBIFLY MET'MAP TEAM :

Programmazione e sviluppo : Alexandra Zaïnal
Concezione : Baudouin d'Aumeries
Aiuto per la programmazione : Marc-Olivier Méhu
Supporto tecnico e logistico : Manuel Goepfert
Aiuto per la traduzione : Arnaldo La Scala

Contatto : metmap@orbifly.com




FONTI E CREDITI :

   NOAA